<?xml version="1.0"?>
<gpx xmlns="http://www.topografix.com/GPX/1/1" xmlns:xsi="http://www.w3.org/2001/XMLSchema-instance" version="1.1" creator="GPX RubyGem 1.0.0 -- http://dougfales.github.io/gpx/" xsi:schemaLocation="http://www.topografix.com/GPX/1/1 http://www.topografix.com/GPX/1/1/gpx.xsd">
  <metadata>
    <name/>
    <time>2026-05-09T15:51:08+00:00</time>
    <bound minlat="90.0" minlon="180.0" maxlat="-90.0" maxlon="-180.0"/>
  </metadata>
  <trk>
    <name/>
    <trkseg>
      <trkpt lat="51.445782" lon="9.419612">
        <time>1970-01-01T00:00:00+00:00</time>
        <ele>187.0</ele>
      </trkpt>
      <trkpt lat="51.445735" lon="9.419459">
        <time>1970-01-01T00:00:00+00:00</time>
        <ele>187.0</ele>
      </trkpt>
      <trkpt lat="51.445613" lon="9.41904">
        <time>1970-01-01T00:00:00+00:00</time>
        <ele>187.0</ele>
      </trkpt>
      <trkpt lat="51.445556" lon="9.418831">
        <time>1970-01-01T00:00:00+00:00</time>
        <ele>187.0</ele>
      </trkpt>
      <trkpt lat="51.445512" lon="9.418693">
        <time>1970-01-01T00:00:00+00:00</time>
        <ele>187.0</ele>
      </trkpt>
      <trkpt lat="51.445405" lon="9.418495">
        <time>1970-01-01T00:00:00+00:00</time>
        <ele>188.0</ele>
      </trkpt>
      <trkpt lat="51.445254" lon="9.418239">
        <time>1970-01-01T00:00:00+00:00</time>
        <ele>189.0</ele>
      </trkpt>
      <trkpt lat="51.444994" lon="9.418441">
        <time>1970-01-01T00:00:00+00:00</time>
        <ele>194.0</ele>
      </trkpt>
      <trkpt lat="51.444759" lon="9.418423">
        <time>1970-01-01T00:00:00+00:00</time>
        <ele>197.0</ele>
      </trkpt>
      <trkpt lat="51.444369" lon="9.417798">
        <time>1970-01-01T00:00:00+00:00</time>
        <ele>196.0</ele>
      </trkpt>
      <trkpt lat="51.444177" lon="9.417256">
        <time>1970-01-01T00:00:00+00:00</time>
        <ele>197.0</ele>
      </trkpt>
      <trkpt lat="51.444026" lon="9.416441">
        <time>1970-01-01T00:00:00+00:00</time>
        <ele>198.0</ele>
      </trkpt>
      <trkpt lat="51.443997" lon="9.416234">
        <time>1970-01-01T00:00:00+00:00</time>
        <ele>198.0</ele>
      </trkpt>
      <trkpt lat="51.443518" lon="9.416475">
        <time>1970-01-01T00:00:00+00:00</time>
        <ele>206.0</ele>
      </trkpt>
      <trkpt lat="51.443075" lon="9.416487">
        <time>1970-01-01T00:00:00+00:00</time>
        <ele>217.0</ele>
      </trkpt>
      <trkpt lat="51.443078" lon="9.415908">
        <time>1970-01-01T00:00:00+00:00</time>
        <ele>220.0</ele>
      </trkpt>
      <trkpt lat="51.44308" lon="9.415523">
        <time>1970-01-01T00:00:00+00:00</time>
        <ele>221.0</ele>
      </trkpt>
      <trkpt lat="51.44306" lon="9.415373">
        <time>1970-01-01T00:00:00+00:00</time>
        <ele>222.0</ele>
      </trkpt>
      <trkpt lat="51.443126" lon="9.415339">
        <time>1970-01-01T00:00:00+00:00</time>
        <ele>220.0</ele>
      </trkpt>
      <trkpt lat="51.443127" lon="9.41523">
        <time>1970-01-01T00:00:00+00:00</time>
        <ele>220.0</ele>
      </trkpt>
      <trkpt lat="51.443127" lon="9.41523">
        <time>1970-01-01T00:00:00+00:00</time>
        <ele>220.0</ele>
      </trkpt>
      <trkpt lat="51.443126" lon="9.415339">
        <time>1970-01-01T00:00:00+00:00</time>
        <ele>220.0</ele>
      </trkpt>
      <trkpt lat="51.44306" lon="9.415373">
        <time>1970-01-01T00:00:00+00:00</time>
        <ele>222.0</ele>
      </trkpt>
      <trkpt lat="51.44308" lon="9.415523">
        <time>1970-01-01T00:00:00+00:00</time>
        <ele>221.0</ele>
      </trkpt>
      <trkpt lat="51.443078" lon="9.415908">
        <time>1970-01-01T00:00:00+00:00</time>
        <ele>220.0</ele>
      </trkpt>
      <trkpt lat="51.443075" lon="9.416487">
        <time>1970-01-01T00:00:00+00:00</time>
        <ele>217.0</ele>
      </trkpt>
      <trkpt lat="51.443518" lon="9.416475">
        <time>1970-01-01T00:00:00+00:00</time>
        <ele>206.0</ele>
      </trkpt>
      <trkpt lat="51.443997" lon="9.416234">
        <time>1970-01-01T00:00:00+00:00</time>
        <ele>198.0</ele>
      </trkpt>
      <trkpt lat="51.444026" lon="9.416441">
        <time>1970-01-01T00:00:00+00:00</time>
        <ele>198.0</ele>
      </trkpt>
      <trkpt lat="51.444177" lon="9.417256">
        <time>1970-01-01T00:00:00+00:00</time>
        <ele>197.0</ele>
      </trkpt>
      <trkpt lat="51.444369" lon="9.417798">
        <time>1970-01-01T00:00:00+00:00</time>
        <ele>196.0</ele>
      </trkpt>
      <trkpt lat="51.444759" lon="9.418423">
        <time>1970-01-01T00:00:00+00:00</time>
        <ele>197.0</ele>
      </trkpt>
      <trkpt lat="51.444994" lon="9.418441">
        <time>1970-01-01T00:00:00+00:00</time>
        <ele>194.0</ele>
      </trkpt>
      <trkpt lat="51.445254" lon="9.418239">
        <time>1970-01-01T00:00:00+00:00</time>
        <ele>189.0</ele>
      </trkpt>
      <trkpt lat="51.445405" lon="9.418495">
        <time>1970-01-01T00:00:00+00:00</time>
        <ele>188.0</ele>
      </trkpt>
      <trkpt lat="51.445512" lon="9.418693">
        <time>1970-01-01T00:00:00+00:00</time>
        <ele>187.0</ele>
      </trkpt>
      <trkpt lat="51.445556" lon="9.418831">
        <time>1970-01-01T00:00:00+00:00</time>
        <ele>187.0</ele>
      </trkpt>
      <trkpt lat="51.445613" lon="9.41904">
        <time>1970-01-01T00:00:00+00:00</time>
        <ele>187.0</ele>
      </trkpt>
      <trkpt lat="51.445735" lon="9.419459">
        <time>1970-01-01T00:00:00+00:00</time>
        <ele>187.0</ele>
      </trkpt>
      <trkpt lat="51.445782" lon="9.419612">
        <time>1970-01-01T00:00:00+00:00</time>
        <ele>187.0</ele>
      </trkpt>
    </trkseg>
  </trk>
</gpx>
